Location: Larrial
(48.2758°N, 4.5331°W)
Time: 13:04:08
(UTC+00:00)

COSMOS 2406 - Pass Details

Date: 09 April 2020
Orbit: 842 x 865 km, 71.0° (Epoch: 02 June)

Event Time Altitude Azimuth Distance (km) Brightness Sun altitude
Exits shadow 20:55:02 28° 151° (SSE) 1,550 4.1 -18.1°
Maximum altitude 20:57:14 38° 107° (ESE) 1,264 3.6 -18.3°
Drops below altitude 10° 21:02:28 10° 41° (NE) 2,489 5.6 -19.0°
Sets 21:05:04 0° 34° (NNE) 3,433 6.4 -19.4°
